星链-34419 (STARLINK-34419)

导读 | 豆包AI

STARLINK-34419是美国于2025年6月17日发射的星链卫星,隶属于SpaceX打造的星链卫星互联网星座项目。该卫星承担着为全球偏远地区、海上及航空场景提供高速低延迟宽带互联网接入的任务,助力星链完成全球网络覆盖布局,推进低轨卫星通信网络的规模化建设。

基本信息
目录编号:
64412
目录名称:
STARLINK-34419
国际标识:
2025-129A
轨道中心:
EARTH
卫星名称:
星链-34419
卫星全名:
星链-34419 (STARLINK-34419)
卫星状态:
在轨 (已飞行270 天)
发射日期:
2025-06-17 UTC
国别 :
美国 (US)
星等 :
--
轨道信息
数据来源 国际轨道数据 AOE轨道数据
星历时间 2026-03-14T11:55:24+0800
13小时前
查看轨道信息
2026-03-11T06:00:00+0800
3天前
查看轨道信息
半长轴 6950.133km 6950.182km
偏心率 0.0003043 0.00033
轨道倾角 70.006° 70.000°
近地点辐角 195.253° 272.319°
升交点赤经 63.328° 71.505°
平近点角 164.854° 219.503°
近地点 569.881km 569.751km
远地点 574.111km 574.339km
周期 96.106分钟 96.107分钟
每日圈数 14.983494 14.983336
详细信息
固有亮度:
5
最大亮度:
2.5
卫星平台:
Starlink V1.0
覆盖范围:
全球
运营商:
太空探索技术公司
运营商所在国:
美国
制造商(研发单位):
太空探索技术公司
制造商所在国:
美国
使用方式:
暂无
卫星简介
Starlink 计划是 SpaceX 推出的全球卫星互联网项目,通过发射低轨道卫星,为全球尤其是偏远地区提供高速、低延迟的互联网服务。自 2019 年起,Starlink 已部署数千颗卫星,旨在缩小全球数字鸿沟,推动互联网普及。该项目还为军事、航空等行业提供通信支持,带来广泛经济效益。
2D轨道图
3D轨道图
轨道高度分析图
轨道倾角分析图
轨道综合分析图
查看轨道综合分析图